When you browse on this site, cookies collect data to enhance your experience and personalize the content and advertising you see.
Visit our Privacy Policy to learn more. By continuing to use the site, you agree to this use of cookies and data.
  • în România
  • Lista ţărilor
  • Pe 7 zile
  • Temperatura apei
  • Meteo pe hartă
  • Widget-uri
  • user-avatar
    Intrare

    Meteo pe oră la Adelaide

    Astăzi, 22 Octombrie, Marţi

    Timp Temperatura Precipitaţii Vânt Presiune Umiditate
    00:00 +16°C° 0 mm 2 m/s 764 mmHg 56%
    01:00 +16°C° 0 mm 2 m/s 763 mmHg 54%
    02:00 +16°C° 0 mm 2 m/s 763 mmHg 52%
    03:00 +16°C° 0 mm 2 m/s 763 mmHg 53%
    04:00 +16°C° 0 mm 2 m/s 763 mmHg 53%
    05:00 +16°C° 0 mm 2 m/s 763 mmHg 54%
    06:00 +16°C° 0 mm 1 m/s 764 mmHg 54%
    07:00 +20°C° 0 mm 1 m/s 764 mmHg 48%
    08:00 +23°C° 0 mm 1 m/s 764 mmHg 42%
    09:00 +26°C° 0 mm 1 m/s 764 mmHg 34%
    10:00 +26°C° 0 mm 1 m/s 763 mmHg 32%
    11:00 +27°C° 0 mm 2 m/s 763 mmHg 30%
    12:00 +28°C° 0 mm 2 m/s 762 mmHg 28%
    13:00 +28°C° 0 mm 2 m/s 762 mmHg 28%
    14:00 +28°C° 0 mm 2 m/s 761 mmHg 28%
    15:00 +28°C° 0 mm 2 m/s 761 mmHg 27%
    16:00 +27°C° 0 mm 2 m/s 760 mmHg 32%
    17:00 +25°C° 0 mm 2 m/s 760 mmHg 38%
    18:00 +23°C° 0 mm 2 m/s 760 mmHg 43%
    19:00 +21°C° 0 mm 3 m/s 761 mmHg 41%
    20:00 +21°C° 0 mm 3 m/s 761 mmHg 38%
    21:00 +20°C° 0 mm 3 m/s 761 mmHg 36%
    22:00 +20°C° 0 mm 3 m/s 761 mmHg 38%
    23:00 +20°C° 0 mm 3 m/s 761 mmHg 41%

    Mâine, 23 Octombrie, Miercuri

    Timp Temperatura Precipitaţii Vânt Presiune Umiditate
    00:00 +20°C° 0 mm 3 m/s 761 mmHg 44%
    01:00 +19°C° 0 mm 3 m/s 760 mmHg 43%
    02:00 +19°C° 0 mm 3 m/s 760 mmHg 43%
    03:00 +19°C° 0 mm 3 m/s 759 mmHg 42%
    04:00 +19°C° 0 mm 3 m/s 760 mmHg 42%
    05:00 +20°C° 0 mm 3 m/s 760 mmHg 41%
    06:00 +20°C° 0 mm 3 m/s 760 mmHg 41%
    07:00 +24°C° 0 mm 3 m/s 760 mmHg 37%
    08:00 +26°C° 0 mm 3 m/s 760 mmHg 32%
    09:00 +29°C° 0 mm 3 m/s 760 mmHg 28%
    10:00 +29°C° 0 mm 3 m/s 759 mmHg 27%
    11:00 +30°C° 0 mm 3 m/s 759 mmHg 26%
    12:00 +30°C° 0 mm 3 m/s 758 mmHg 24%
    13:00 +30°C° 0 mm 2 m/s 758 mmHg 24%
    14:00 +31°C° 0 mm 2 m/s 757 mmHg 24%
    15:00 +31°C° 0 mm 2 m/s 756 mmHg 24%
    16:00 +29°C° 0 mm 2 m/s 756 mmHg 27%
    17:00 +27°C° 0 mm 2 m/s 756 mmHg 29%
    18:00 +25°C° 0 mm 2 m/s 756 mmHg 32%
    19:00 +25°C° 0 mm 2 m/s 756 mmHg 32%
    20:00 +24°C° 0 mm 2 m/s 756 mmHg 32%
    21:00 +23°C° 0 mm 2 m/s 756 mmHg 32%
    22:00 +22°C° 0 mm 3 m/s 756 mmHg 31%
    23:00 +22°C° 0 mm 3 m/s 755 mmHg 31%

    Poimâine, 24 Octombrie, Joi

    Timp Temperatura Precipitaţii Vânt Presiune Umiditate
    00:00 +24°C° 0 mm 3 m/s 755 mmHg 30%
    01:00 +22°C° 0 mm 3 m/s 754 mmHg 30%
    02:00 +22°C° 0 mm 4 m/s 754 mmHg 30%
    03:00 +22°C° 0 mm 4 m/s 753 mmHg 29%
    04:00 +23°C° 0 mm 4 m/s 753 mmHg 30%
    05:00 +23°C° 0 mm 4 m/s 753 mmHg 30%
    06:00 +23°C° 0 mm 4 m/s 753 mmHg 30%
    07:00 +27°C° 0 mm 5 m/s 753 mmHg 26%
    08:00 +29°C° 0 mm 5 m/s 752 mmHg 22%
    09:00 +33°C° 0 mm 6 m/s 752 mmHg 18%
    10:00 +33°C° 0 mm 6 m/s 751 mmHg 18%
    11:00 +33°C° 0 mm 7 m/s 751 mmHg 17%
    12:00 +34°C° 0 mm 7 m/s 750 mmHg 17%
    13:00 +34°C° 0 mm 7 m/s 749 mmHg 17%
    14:00 +34°C° 0 mm 7 m/s 748 mmHg 16%
    15:00 +35°C° 0 mm 7 m/s 747 mmHg 16%
    16:00 +32°C° 0 mm 8 m/s 747 mmHg 25%
    17:00 +29°C° 0 mm 9 m/s 747 mmHg 33%
    18:00 +26°C° 0 mm 10 m/s 748 mmHg 41%
    19:00 +22°C° 0 mm 8 m/s 749 mmHg 54%
    20:00 +18°C° 0 mm 7 m/s 750 mmHg 66%
    21:00 +15°C° 0 mm 5 m/s 752 mmHg 79%
    22:00 +15°C° 0 mm 5 m/s 752 mmHg 78%
    23:00 +14°C° 0 mm 5 m/s 753 mmHg 77%

    25 Octombrie, Vineri

    Timp Temperatura Precipitaţii Vânt Presiune Umiditate
    00:00 +14°C° 0 mm 6 m/s 753 mmHg 76%
    01:00 +14°C° 0 mm 6 m/s 753 mmHg 75%
    02:00 +13°C° 0 mm 6 m/s 753 mmHg 75%
    03:00 +13°C° 0 mm 6 m/s 753 mmHg 74%
    04:00 +14°C° 0 mm 7 m/s 754 mmHg 73%
    05:00 +14°C° 0 mm 7 m/s 754 mmHg 71%
    06:00 +13°C° 0 mm 8 m/s 754 mmHg 69%
    07:00 +15°C° 0 mm 8 m/s 754 mmHg 65%
    08:00 +15°C° 0 mm 8 m/s 754 mmHg 60%
    09:00 +16°C° 0 mm 9 m/s 754 mmHg 55%
    10:00 +16°C° 0 mm 9 m/s 754 mmHg 54%
    11:00 +16°C° 0 mm 8 m/s 753 mmHg 54%
    12:00 +17°C° 0 mm 8 m/s 753 mmHg 53%
    13:00 +16°C° 0 mm 8 m/s 753 mmHg 55%
    14:00 +16°C° 0 mm 9 m/s 752 mmHg 56%
    15:00 +16°C° 0 mm 9 m/s 752 mmHg 58%
    16:00 +15°C° 0.1 mm 9 m/s 752 mmHg 62%
    17:00 +15°C° 0.1 mm 9 m/s 752 mmHg 66%
    18:00 +13°C° 0.1 mm 9 m/s 752 mmHg 70%
    19:00 +13°C° 0.1 mm 10 m/s 753 mmHg 67%
    20:00 +13°C° 0.1 mm 10 m/s 753 mmHg 64%
    21:00 +13°C° 0.1 mm 11 m/s 753 mmHg 61%
    22:00 +12°C° 0.1 mm 10 m/s 753 mmHg 64%
    23:00 +12°C° 0.1 mm 10 m/s 753 mmHg 66%

    26 Octombrie, Sâmbătă

    Timp Temperatura Precipitaţii Vânt Presiune Umiditate
    00:00 +12°C° 0.1 mm 10 m/s 753 mmHg 68%
    01:00 +12°C° 0.1 mm 9 m/s 753 mmHg 67%
    02:00 +12°C° 0.1 mm 9 m/s 753 mmHg 67%
    03:00 +11°C° 0.1 mm 9 m/s 753 mmHg 66%
    04:00 +11°C° 0 mm 8 m/s 754 mmHg 65%
    05:00 +11°C° 0 mm 8 m/s 755 mmHg 65%
    06:00 +11°C° 0 mm 8 m/s 755 mmHg 64%
    07:00 +12°C° 0 mm 8 m/s 756 mmHg 61%
    08:00 +14°C° 0 mm 7 m/s 756 mmHg 57%
    09:00 +14°C° 0 mm 7 m/s 757 mmHg 54%
    10:00 +15°C° 0 mm 7 m/s 757 mmHg 53%
    11:00 +15°C° 0 mm 7 m/s 757 mmHg 53%
    12:00 +16°C° 0 mm 7 m/s 757 mmHg 52%
    13:00 +16°C° 0 mm 7 m/s 757 mmHg 54%
    14:00 +15°C° 0 mm 7 m/s 758 mmHg 55%
    15:00 +15°C° 0 mm 7 m/s 758 mmHg 56%
    16:00 +14°C° 0 mm 6 m/s 758 mmHg 60%
    17:00 +13°C° 0 mm 6 m/s 758 mmHg 65%
    18:00 +13°C° 0 mm 5 m/s 759 mmHg 69%
    19:00 +12°C° 0 mm 5 m/s 759 mmHg 72%
    20:00 +12°C° 0 mm 5 m/s 760 mmHg 75%
    21:00 +11°C° 0 mm 4 m/s 760 mmHg 78%
    22:00 +11°C° 0 mm 4 m/s 760 mmHg 78%
    23:00 +10°C° 0 mm 4 m/s 760 mmHg 78%

    27 Octombrie, Duminică

    Timp Temperatura Precipitaţii Vânt Presiune Umiditate
    00:00 +10°C° 0 mm 4 m/s 760 mmHg 77%
    01:00 +10°C° 0 mm 3 m/s 760 mmHg 77%
    02:00 +10°C° 0 mm 3 m/s 760 mmHg 77%
    03:00 +10°C° 0 mm 3 m/s 760 mmHg 78%
    04:00 +10°C° 0 mm 3 m/s 760 mmHg 76%
    05:00 +11°C° 0 mm 3 m/s 761 mmHg 74%
    06:00 +11°C° 0 mm 3 m/s 761 mmHg 72%
    07:00 +12°C° 0 mm 3 m/s 761 mmHg 67%
    08:00 +14°C° 0 mm 3 m/s 761 mmHg 63%
    09:00 +16°C° 0 mm 3 m/s 761 mmHg 59%
    10:00 +16°C° 0 mm 3 m/s 761 mmHg 58%
    11:00 +16°C° 0 mm 3 m/s 761 mmHg 57%
    12:00 +17°C° 0 mm 3 m/s 761 mmHg 57%
    13:00 +17°C° 0 mm 3 m/s 761 mmHg 57%
    14:00 +17°C° 0 mm 3 m/s 761 mmHg 57%
    15:00 +17°C° 0 mm 3 m/s 761 mmHg 57%
    16:00 +16°C° 0 mm 3 m/s 761 mmHg 62%
    17:00 +16°C° 0 mm 3 m/s 761 mmHg 67%
    18:00 +14°C° 0 mm 3 m/s 762 mmHg 72%
    19:00 +13°C° 0 mm 3 m/s 762 mmHg 76%
    20:00 +12°C° 0 mm 3 m/s 763 mmHg 81%
    21:00 +11°C° 0 mm 3 m/s 763 mmHg 86%
    22:00 +12°C° 0 mm 2 m/s 763 mmHg 87%
    23:00 +12°C° 0 mm 2 m/s 763 mmHg 88%

    28 Octombrie, Luni

    Timp Temperatura Precipitaţii Vânt Presiune Umiditate
    00:00 +10°C° 0 mm 2 m/s 763 mmHg 89%
    01:00 +10°C° 0 mm 2 m/s 763 mmHg 89%
    02:00 +11°C° 0 mm 1 m/s 763 mmHg 90%
    03:00 +11°C° 0 mm 1 m/s 763 mmHg 90%
    04:00 +11°C° 0 mm 1 m/s 763 mmHg 89%
    05:00 +12°C° 0 mm 1 m/s 763 mmHg 87%
    06:00 +12°C° 0 mm 1 m/s 763 mmHg 86%
    07:00 +15°C° 0 mm 2 m/s 763 mmHg 74%
    08:00 +17°C° 0 mm 2 m/s 763 mmHg 63%
    09:00 +19°C° 0 mm 2 m/s 763 mmHg 51%
    10:00 +20°C° 0 mm 2 m/s 762 mmHg 48%
    11:00 +21°C° 0 mm 2 m/s 762 mmHg 44%
    12:00 +24°C° 0 mm 2 m/s 761 mmHg 41%
    13:00 +24°C° 0 mm 2 m/s 761 mmHg 40%
    14:00 +24°C° 0 mm 3 m/s 760 mmHg 40%
    15:00 +24°C° 0 mm 3 m/s 759 mmHg 39%
    16:00 +22°C° 0 mm 3 m/s 759 mmHg 44%
    17:00 +21°C° 0 mm 3 m/s 759 mmHg 49%
    18:00 +19°C° 0 mm 2 m/s 759 mmHg 54%
    19:00 +18°C° 0 mm 3 m/s 759 mmHg 56%
    20:00 +18°C° 0 mm 3 m/s 759 mmHg 58%
    21:00 +17°C° 0 mm 3 m/s 759 mmHg 59%
    22:00 +18°C° 0 mm 4 m/s 758 mmHg 53%
    23:00 +19°C° 0 mm 5 m/s 758 mmHg 46%
    Arată mai mult